Flag for Germany Weather past 2 weeks in Mainz, Rhineland-Palatinate, Germany

Now
61 °F

Passing clouds.


Feels Like: 61 °F
Forecast: 58 / 81 °F
Wind: 6 mph from North

Location: Wiesbaden Airport

Current Time: Jul 31, 2015 at 10:26:53 AM

Latest Report: Jul 31, 2015 at 9:58 AM


Visibility: N/A

Pressure: 30.13 "Hg

Humidity: 63%

Dew point: 48 °F

Location of MainzLocation

Historic Weather in Mainz — Graph

°F

Mainz temperature yesterday

Maximum temperature yesterday: 72 °F (at 3:58 PM)
Minimum temperature yesterday: 50 °F (at 5:58 AM)
Average temperature yesterday: 60 °F

Past Weeks' High & Low Weather Summary

 TemperatureHumidityPressure
High95 °F (Jul 17, 4:58 PM)100% (Jul 18, 2:58 AM)30.13 "Hg (Jul 18, 2:58 AM)
Low49 °F (Jul 26, 5:58 AM)26% (Jul 17, 2:58 PM)29.62 "Hg (Jul 24, 10:58 PM)
Average71 °F63%29.89 "Hg
* Reported Jul 16 8:58 AM — Jul 31 8:58 AM, Mainz, Weather by CustomWeather, © 2015

Note: Actual official high and low records may vary slightly from our data, if they occured in-between our weather recording intervals... More about our weather records

Advertising

Mainz weather history for previous 24 hours

 ConditionsComfort  
Time TempWeatherWind HumidityBarometerVisibility
8:58 AM
Fri, Jul 31
59 °FSunny.3 mph72%30.13 "HgN/A
7:58 AM55 °FSunny.7 mph82%30.13 "HgN/A
6:58 AM54 °FSunny.6 mph82%30.12 "HgN/A
5:58 AM51 °FClear.2 mph90%30.11 "HgN/A
4:58 AM52 °FClear.7 mph88%30.10 "HgN/A
3:58 AM54 °FPassing clouds.8 mph88%30.10 "HgN/A
2:58 AM52 °FClear.5 mph88%30.10 "HgN/A
1:58 AM54 °FClear.5 mph82%30.10 "HgN/A
12:58 AM54 °FClear.3 mph82%30.10 "HgN/A
11:58 PM
Thu, Jul 30
56 °FPassing clouds.3 mph75%30.09 "HgN/A
10:58 PM57 °FPassing clouds.5 mph72%30.07 "HgN/A
9:58 PM60 °FBroken clouds.1 mph63%30.06 "HgN/A
8:58 PM61 °FMostly cloudy.5 mph55%30.04 "HgN/A
7:58 PM64 °FMostly cloudy.8 mph52%30.02 "HgN/A
6:58 PM64 °FBroken clouds.10 mph49%30.00 "HgN/A
5:58 PM68 °FOvercast.10 mph46%29.99 "HgN/A
4:58 PM72 °FBroken clouds.12 mph33%29.97 "HgN/A
3:58 PM72 °FPartly sunny.8 mph31%29.97 "HgN/A
2:58 PM70 °FPartly sunny.8 mph33%29.97 "HgN/A
1:58 PM70 °FScattered clouds.12 mph34%29.97 "HgN/A
12:58 PM70 °FScattered clouds.3 mph33%29.98 "HgN/A
11:58 AM67 °FPartly sunny.6 mph42%29.98 "HgN/A
10:58 AM63 °FScattered clouds.2 mph53%29.98 "HgN/A
Weather by CustomWeather, © 2015

See weather overviewHow to use our weather pages